Terminal Aerodrome Forecast
Issued by NWS Wilmington, OH

Current Version | Previous Version | Graphics & Text | Print | Product List | Glossary On
Versions: 1 2 3 4 5 6 7 8 9 10 11 12 13 14 15 16 17 18 19
000
FTUS41 KILN 250500
TAFCMH
TAF
KCMH 250532Z 2506/2606 11006KT P6SM FEW090 BKN250
     FM251400 12005KT P6SM SCT060
     FM260000 12004KT P6SM SCT250=

USA.gov is the U.S. government's official web portal to all federal, state and local government web resources and services.